Location: Arroyo de Valdeoliva
(40.1604°N, 4.9878°W)
Time: 09:51:17
(UTC+00:00)

SPOT 1/Viking Rocket - Pass Details

Date: 11 March 2026
Orbit: 773 x 789 km, 98.2° (Epoch: 19 April)

Event Time Altitude Azimuth Distance (km) Brightness Sun altitude
Rises 18:53:05 0° 183° (S) 3,243 6.8 -6.7°
Reaches altitude 10° 18:55:29 10° 190° (S) 2,322 6.1 -7.1°
Maximum altitude 19:00:22 44° 262° (W) 1,075 4.9 -8.1°
Drops below altitude 10° 19:05:18 10° 334° (NNW) 2,348 6.4 -9.0°
Sets 19:07:45 0° 341° (NNW) 3,283 7.1 -9.5°
